Location: Ravensburg
(47.7866°N, 9.6124°E)
Time: 09:53:33
(UTC+02:00)

METEOR M2 - Pass Details

Date: 22 March 2026
Orbit: 817 x 824 km, 98.5° (Epoch: 18 April)

Event Time Altitude Azimuth Distance (km) Brightness Sun altitude
Rises 03:15:27 0° 30° (NNE) 3,372 ? -29.6°
Reaches altitude 10° 03:18:59 10° 54° (NE) 2,432 ? -29.1°
Maximum altitude 03:21:53 15° 87° (E) 2,120 ? -28.8°
Drops below altitude 10° 03:24:45 10° 120° (ESE) 2,421 ? -28.4°
Sets 03:28:15 0° 144° (SE) 3,346 ? -27.9°
